Location: *
(46.4000°N, 12.6667°E)
Time: 07:58:50
(UTC+00:00)

Cosmos 2058 Rocket - Pass Details

Date: 09 April 2020
Orbit: 610 x 640 km, 82.5° (Epoch: 02 June)

Event Time Altitude Azimuth Distance (km) Brightness Sun altitude
Rises 18:52:31 0° 181° (S) 2,930 6.3 -11.1°
Reaches altitude 10° 18:54:46 10° 178° (S) 2,026 5.4 -11.5°
Maximum altitude 18:59:14 69° 97° (E) 688 3.1 -12.2°
Drops below altitude 10° 19:03:44 10° 14° (NNE) 2,036 5.9 -12.9°
Sets 19:05:59 0° 12° (NNE) 2,947 6.7 -13.2°
